Вернуться в каталог

CZ-2C DEB

АктивенSSO
NORAD 38863·DEBRIS·🇨🇳 China

Запущен Oct 14, 2012 с Taiyuan Satellite Launch Center

Loading…

Ближайшие Пролёты (ближайшие 24 часа)

TLE

СвежийSource: Space-Track

Эпоха: Sep 14, 2026, 22:32 UTC

1 38863U 12056D   26257.93922455  .00015705  00000-0  60737-3 0  9997
2 38863  97.5375 328.3327 0009416 103.4142 256.8146 15.26265984756973

Отслеживайте CZ-2C DEB в реальном времени с AllMySat

Download on the App Store